THORAD AGENA D DEB, 4453

Orbit data source: Space-Track

THORAD AGENA D DEB, 4453 is space debris in LEO originally from a launch on Tue, 30 Sep 1969 UTC launched from the Air Force Western Test Range (AFWTR). Debris objects in space refer to the collection of defunct objects orbiting the Earth. Examples of debris include non-operational satellites, rocket bodies, and fragments generated from explosions, collisions, or faulty payload assembly.

Loading next visibility...
Identifier
4453, 1969-082EY
Orbit
LEO
Country
Flag of USUS
Related business
Manufacturer
Unknown
Mission
Spacecraft
Bus & Motor
Unknown
Mass
Unknown
Launch date (UTC)
1969-09-30 (57 years ago)
Launch vehicle
Unknown
Launch site
Air Force Western Test Range (AFWTR)
Object type
Payload
Rocket body
Debris
Shape & HBR
Unknown shape, 0.1 m
Radar Cross Section
Medium (>0.1 m² and <1 m²)

Expand to show TLE details & history
Last TLE update: 3 days ago

TLE from 3 days ago
0 THORAD AGENA D DEB
1  4453U 69082EY  26171.39102683  .00000184  00000-0  13140-3 0  9995
2  4453  70.1307 166.0513 0030811 133.4093 226.9594 14.11216264908916
Epoch: 2026-06-20T09:23Z
TLE epoch observation values (Epoch: 2026-06-20T09:23:04.718Z)
Latitude
-0.00004°
Longitude
116.6753°
Altitude
872.8 km
Speed
7.408 km/s
True Right ascension
11h 04m 12s
True Declination
0° 00' 00"
Sunlit
Object was in daylight at epoch
Visualization orbit readout
Latitude
Unknown
Longitude
Unknown
Altitude
Unknown
Speed
Unknown
Apparent Right ascension
Unknown
Apparent Declination
Unknown
Sunlit
N/A
Visualization observer readout
Local Sidereal Time
12:49:13
Azimuth
Unknown
Elevation
Unknown
Doppler factor
Unknown
Orbital elements
Apogee altitude
875.509 km
Perigee altitude
830.948 km
Semi-major axis
7,231.365 km
Eccentricity
0.00308
Inclination
70.1307°
RAAN
166.0513°
Arg. of periapsis
133.4093°
True anomaly
226.70203°
Mean anomaly
226.9594°
Eccentric anomaly
226.83065°
Mean motion
3.5295 °/min
Orbital period
102 mins
BSTAR
0.0001314

Documentation

Showing up to 5 results
|